Location: Ladrillo (historical)
(32.8195°N, 117.2231°W)
Time: 17:10:42
(UTC+00:00)

MINOTAUR 4 R/B - Visible Passes

Search period start: 29 September 2022 00:00
Search period end: 09 October 2022 00:00
Orbit: 462 x 468 km, 98.0° (Epoch: 28 September)

Date Brightness Start Highest point End Pass type
(mag) Time Alt. Az. Time Alt. Az. Time Alt. Az.
29 Sep 7.0 12:15:26 10° ESE 12:17:59 19° ENE 12:20:32 10° NNE visible
01 Oct 6.6 02:18:40 10° NNW 02:21:33 25° WNW 02:24:26 10° SW visible
01 Oct 4.8 12:46:53 10° SSE 12:50:17 54° ENE 12:53:42 10° N visible
02 Oct 6.9 12:17:34 10° ESE 12:20:10 20° ENE 12:22:45 10° NNE visible
04 Oct 6.6 02:20:49 10° NNW 02:23:40 24° WNW 02:26:29 10° SW visible
04 Oct 4.7 12:48:58 10° SSE 12:52:23 56° ENE 12:55:48 10° N visible
05 Oct 4.3 01:50:01 10° N 01:53:28 70° WNW 01:56:54 10° SSW visible
05 Oct 6.8 12:19:35 10° ESE 12:22:12 20° ENE 12:24:50 10° NNE visible
06 Oct 4.3 13:21:19 10° S 13:24:39 44° W 13:28:00 10° NNW visible
07 Oct 6.6 02:22:49 10° NNW 02:25:38 23° WNW 02:28:25 10° SW visible
07 Oct 4.7 12:50:54 10° SSE 12:54:19 58° ENE 12:57:45 10° N visible
08 Oct 4.4 01:51:57 10° N 01:55:24 68° WNW 01:58:49 10° SSW visible
08 Oct 6.8 12:21:27 10° ESE 12:24:06 21° ENE 12:26:46 10° NNE visible
